Terminal Aerodrome Forecast
Issued by NWS Miami, FL

Home | Current Version | Previous Version | Text Only | Print | Product List | Glossary On
Versions: 1 2 3 4 5 6 7 8 9 10 11 12 13 14 15 16 17 18 19 20 21 22 23 24 25 26 27 28 29 30 31 32 33 34 35 36 37 38 39 40 41 42 43 44 45 46 47 48 49 50
974
FTUS42 KMFL 271258 AAA
TAFAPF
TAF AMD
KAPF 271258Z 2713/2812 12005KT 6SM BR SCT005
      TEMPO 2713/2714 3SM BR BKN005
     FM271400 15005KT P6SM FEW010 SCT035
     FM271600 21010KT P6SM FEW035
     FM280000 VRB05KT P6SM SKC=

USA.gov is the U.S. government's official web portal to all federal, state and local government web resources and services.